TimeEDT,TemperatureF,Dew PointF,Humidity,Sea Level PressureIn,VisibilityMPH,Wind Direction,Wind SpeedMPH,Gust SpeedMPH,PrecipitationIn,Events,Conditions,WindDirDegrees,DateUTC
12:15 AM,58.3,56.8,95,30.04,7.0,Calm,Calm,-,N/A,,Mostly Cloudy,0,2013-10-01 04:15:00
12:35 AM,57.7,56.5,96,30.04,7.0,Calm,Calm,-,N/A,,Scattered Clouds,0,2013-10-01 04:35:00
12:55 AM,57.6,56.3,96,30.04,5.0,Calm,Calm,-,N/A,,Scattered Clouds,0,2013-10-01 04:55:00
1:15 AM,57.4,56.1,96,30.03,5.0,Calm,Calm,-,N/A,,Clear,0,2013-10-01 05:15:00
1:35 AM,56.1,54.9,96,30.04,4.0,Calm,Calm,-,N/A,,Clear,0,2013-10-01 05:35:00
1:55 AM,55.9,54.9,96,30.04,3.0,Calm,Calm,-,N/A,,Clear,0,2013-10-01 05:55:00
2:15 AM,55.8,54.7,96,30.04,1.5,Calm,Calm,-,N/A,,Mist,0,2013-10-01 06:15:00
2:35 AM,55.6,54.5,96,30.04,0.5,Calm,Calm,-,N/A,Fog,Fog,0,2013-10-01 06:35:00
2:55 AM,54.5,53.6,97,30.04,0.2,Calm,Calm,-,N/A,Fog,Fog,0,2013-10-01 06:55:00
3:15 AM,54.5,53.6,97,30.04,0.2,Calm,Calm,-,N/A,Fog,Fog,0,2013-10-01 07:15:00
3:35 AM,53.6,52.7,97,30.04,0.5,Calm,Calm,-,N/A,Fog,Fog,0,2013-10-01 07:35:00
3:55 AM,53.6,52.7,97,30.04,0.2,Calm,Calm,-,N/A,Fog,Fog,0,2013-10-01 07:55:00
4:15 AM,52.9,52.0,97,30.04,0.2,Calm,Calm,-,N/A,Fog,Fog,0,2013-10-01 08:15:00
4:35 AM,53.2,52.3,97,30.05,0.5,Calm,Calm,-,N/A,Fog,Fog,0,2013-10-01 08:35:00
4:55 AM,52.7,51.8,97,30.06,0.2,Calm,Calm,-,N/A,Fog,Fog,0,2013-10-01 08:55:00
5:15 AM,52.3,51.4,97,30.06,0.2,Calm,Calm,-,N/A,Fog,Fog,0,2013-10-01 09:15:00
5:35 AM,52.2,51.3,97,30.06,0.5,Calm,Calm,-,N/A,Fog,Fog,0,2013-10-01 09:35:00
5:55 AM,52.0,51.1,97,30.06,0.5,Calm,Calm,-,N/A,Fog,Fog,0,2013-10-01 09:55:00
6:15 AM,51.4,50.5,97,30.07,0.8,Calm,Calm,-,N/A,,Overcast,0,2013-10-01 10:15:00
6:35 AM,51.8,50.9,97,30.08,1.2,Calm,Calm,-,N/A,,Overcast,0,2013-10-01 10:35:00
6:55 AM,51.4,50.5,97,30.09,0.5,Calm,Calm,-,N/A,Fog,Fog,0,2013-10-01 10:55:00
7:15 AM,51.6,50.9,97,30.09,0.2,Calm,Calm,-,N/A,Fog,Fog,0,2013-10-01 11:15:00
7:35 AM,51.8,50.9,97,30.10,0.2,Calm,Calm,-,N/A,Fog,Fog,0,2013-10-01 11:35:00
7:55 AM,52.2,51.4,97,30.11,0.2,Calm,Calm,-,N/A,Fog,Fog,0,2013-10-01 11:55:00
8:15 AM,53.4,52.5,97,30.11,0.2,Calm,Calm,-,N/A,Fog,Fog,0,2013-10-01 12:15:00
8:35 AM,55.2,54.5,97,30.12,0.2,Calm,Calm,-,N/A,Fog,Fog,0,2013-10-01 12:35:00
8:55 AM,56.8,56.1,97,30.12,0.2,Calm,Calm,-,N/A,Fog,Fog,0,2013-10-01 12:55:00
9:15 AM,59.2,58.5,97,30.12,3.0,Calm,Calm,-,N/A,,Scattered Clouds,0,2013-10-01 13:15:00
9:35 AM,61.7,60.8,97,30.12,10.0,Calm,Calm,-,N/A,,Clear,0,2013-10-01 13:35:00
9:55 AM,62.8,61.9,97,30.12,10.0,Calm,Calm,-,N/A,,Clear,0,2013-10-01 13:55:00
10:15 AM,64.4,63.0,95,30.12,10.0,Calm,Calm,-,N/A,,Clear,0,2013-10-01 14:15:00
10:35 AM,65.5,63.7,94,30.12,10.0,Calm,Calm,-,N/A,,Clear,0,2013-10-01 14:35:00
10:55 AM,67.3,64.0,89,30.13,10.0,WSW,3.5,-,N/A,,Clear,240,2013-10-01 14:55:00
11:15 AM,70.5,63.1,77,30.12,10.0,West,4.6,-,N/A,,Clear,270,2013-10-01 15:15:00
11:35 AM,71.8,61.0,69,30.11,10.0,WSW,4.6,-,N/A,,Clear,250,2013-10-01 15:35:00
11:55 AM,73.2,61.2,66,30.11,10.0,West,5.8,-,N/A,,Clear,260,2013-10-01 15:55:00
12:15 PM,74.1,59.9,61,30.11,10.0,WSW,6.9,-,N/A,,Clear,250,2013-10-01 16:15:00
12:35 PM,75.0,59.4,58,30.10,10.0,WSW,10.4,-,N/A,,Mostly Cloudy,240,2013-10-01 16:35:00
12:55 PM,74.8,58.8,57,30.10,10.0,WSW,9.2,-,N/A,,Mostly Cloudy,250,2013-10-01 16:55:00
1:15 PM,74.5,58.8,58,30.09,10.0,West,8.1,-,N/A,,Mostly Cloudy,260,2013-10-01 17:15:00
1:35 PM,73.4,57.6,58,30.09,10.0,SW,5.8,-,N/A,,Mostly Cloudy,230,2013-10-01 17:35:00
1:55 PM,75.7,57.0,52,30.08,10.0,WSW,8.1,-,N/A,,Scattered Clouds,240,2013-10-01 17:55:00
2:15 PM,74.5,57.2,55,30.08,10.0,WSW,6.9,-,N/A,,Mostly Cloudy,240,2013-10-01 18:15:00
2:35 PM,75.7,56.5,51,30.07,10.0,SW,6.9,-,N/A,,Mostly Cloudy,230,2013-10-01 18:35:00
2:55 PM,76.5,57.0,51,30.07,10.0,SW,9.2,-,N/A,,Mostly Cloudy,230,2013-10-01 18:55:00
3:15 PM,76.1,56.8,51,30.06,10.0,West,5.8,-,N/A,,Scattered Clouds,260,2013-10-01 19:15:00
3:35 PM,76.6,57.6,52,30.06,10.0,WSW,6.9,-,N/A,,Scattered Clouds,250,2013-10-01 19:35:00
3:55 PM,76.1,57.6,53,30.06,10.0,SW,3.5,-,N/A,,Scattered Clouds,230,2013-10-01 19:55:00
4:15 PM,77.0,57.6,51,30.06,10.0,SSW,5.8,-,N/A,,Scattered Clouds,210,2013-10-01 20:15:00
4:35 PM,75.9,56.3,50,30.04,10.0,WSW,6.9,-,N/A,,Scattered Clouds,240,2013-10-01 20:35:00
4:55 PM,76.1,57.6,53,30.04,10.0,West,5.8,-,N/A,,Scattered Clouds,270,2013-10-01 20:55:00
5:15 PM,76.6,57.7,52,30.04,10.0,WSW,3.5,-,N/A,,Scattered Clouds,250,2013-10-01 21:15:00
5:35 PM,76.6,58.1,53,30.04,10.0,WSW,6.9,-,N/A,,Clear,240,2013-10-01 21:35:00
5:55 PM,75.7,59.0,56,30.04,10.0,WSW,4.6,-,N/A,,Clear,240,2013-10-01 21:55:00
6:15 PM,74.8,58.6,57,30.04,10.0,Calm,Calm,-,N/A,,Clear,0,2013-10-01 22:15:00
6:35 PM,73.2,59.7,63,30.04,10.0,SSW,3.5,-,N/A,,Clear,210,2013-10-01 22:35:00
6:55 PM,70.2,60.4,71,30.04,10.0,Calm,Calm,-,N/A,,Clear,0,2013-10-01 22:55:00
7:15 PM,67.6,59.9,76,30.04,10.0,Calm,Calm,-,N/A,,Clear,0,2013-10-01 23:15:00
7:35 PM,64.8,59.9,84,30.04,10.0,Calm,Calm,-,N/A,,Clear,0,2013-10-01 23:35:00
7:55 PM,64.0,60.1,87,30.05,10.0,Calm,Calm,-,N/A,,Clear,0,2013-10-01 23:55:00
8:15 PM,63.0,59.5,89,30.06,10.0,Calm,Calm,-,N/A,,Clear,0,2013-10-02 00:15:00
8:35 PM,62.4,59.4,90,30.06,10.0,Calm,Calm,-,N/A,,Clear,0,2013-10-02 00:35:00
8:55 PM,61.5,58.8,91,30.06,10.0,Calm,Calm,-,N/A,,Clear,0,2013-10-02 00:55:00
9:15 PM,60.1,58.1,93,30.06,10.0,Calm,Calm,-,N/A,,Clear,0,2013-10-02 01:15:00
9:35 PM,59.9,58.1,94,30.07,10.0,Calm,Calm,-,N/A,,Clear,0,2013-10-02 01:35:00
9:55 PM,60.1,58.3,94,30.07,10.0,Calm,Calm,-,N/A,,Clear,0,2013-10-02 01:55:00
10:15 PM,59.7,58.1,94,30.07,10.0,Calm,Calm,-,N/A,,Clear,0,2013-10-02 02:15:00
10:35 PM,59.2,57.6,94,30.07,10.0,Calm,Calm,-,N/A,,Clear,0,2013-10-02 02:35:00
10:55 PM,59.0,57.6,95,30.07,10.0,Calm,Calm,-,N/A,,Clear,0,2013-10-02 02:55:00
11:15 PM,58.5,57.0,95,30.08,10.0,Calm,Calm,-,N/A,,Clear,0,2013-10-02 03:15:00
11:35 PM,58.1,56.7,95,30.08,7.0,Calm,Calm,-,N/A,,Clear,0,2013-10-02 03:35:00
11:55 PM,57.7,56.5,96,30.08,7.0,Calm,Calm,-,N/A,,Clear,0,2013-10-02 03:55:00